Time,TemperatureF,DewpointF,PressureIn,WindDirection,WindDirectionDegrees,WindSpeedMPH,WindSpeedGustMPH,Humidity,HourlyPrecipIn,Conditions,Clouds,dailyrainin,SoftwareType,DateUTC
2013-12-03 00:00:00,33.3,32.8,29.74,NW,315,0.0,0.0,98,0.00,,,0.00,VWS V14.01,2013-12-03 05:00:00,
2013-12-03 00:01:00,33.3,32.8,29.74,NW,315,0.0,0.0,98,0.00,,,0.00,VWS V14.01,2013-12-03 05:01:00,
2013-12-03 00:06:00,33.3,32.8,29.74,NNW,338,0.0,0.0,98,0.00,,,0.00,VWS V14.01,2013-12-03 05:06:00,
2013-12-03 00:11:00,33.2,32.7,29.74,NNW,338,0.0,0.0,98,0.00,,,0.00,VWS V14.01,2013-12-03 05:11:00,
2013-12-03 00:16:00,33.2,32.7,29.74,NW,315,0.0,3.8,98,0.00,,,0.00,VWS V14.01,2013-12-03 05:16:00,
2013-12-03 00:21:00,33.3,32.8,29.74,NNW,338,0.0,0.0,98,0.00,,,0.00,VWS V14.01,2013-12-03 05:21:00,
2013-12-03 00:26:00,33.3,32.8,29.74,NNW,338,2.5,2.9,98,0.00,,,0.00,VWS V14.01,2013-12-03 05:26:00,
2013-12-03 00:30:00,33.3,32.8,29.74,NW,315,3.1,4.0,98,0.00,,,0.00,VWS V14.01,2013-12-03 05:30:00,
2013-12-03 00:31:00,33.3,32.8,29.74,NNW,338,2.5,4.0,98,0.00,,,0.00,VWS V14.01,2013-12-03 05:31:00,
2013-12-03 00:36:00,33.3,32.8,29.74,NW,315,3.4,3.4,98,0.00,,,0.00,VWS V14.01,2013-12-03 05:36:00,
2013-12-03 00:41:00,33.3,32.8,29.74,NNW,338,2.0,2.0,98,0.00,,,0.00,VWS V14.01,2013-12-03 05:41:00,
2013-12-03 00:46:00,33.5,33.0,29.74,NNW,338,4.7,4.7,98,0.00,,,0.00,VWS V14.01,2013-12-03 05:46:00,
2013-12-03 00:51:00,33.5,33.0,29.74,NNW,338,3.1,5.6,98,0.00,,,0.00,VWS V14.01,2013-12-03 05:51:00,
2013-12-03 00:56:00,33.5,33.0,29.74,NNW,338,2.2,5.4,98,0.00,,,0.00,VWS V14.01,2013-12-03 05:56:00,
2013-12-03 01:00:00,33.5,33.0,29.74,NNW,338,2.9,3.6,98,0.00,,,0.00,VWS V14.01,2013-12-03 06:00:00,
2013-12-03 01:01:00,33.5,33.0,29.74,NNW,338,2.9,3.6,98,0.00,,,0.00,VWS V14.01,2013-12-03 06:01:00,
2013-12-03 01:06:00,33.5,33.0,29.74,NNW,338,3.4,4.3,98,0.00,,,0.00,VWS V14.01,2013-12-03 06:06:00,
2013-12-03 01:11:00,33.3,32.8,29.74,NW,315,4.9,4.9,98,0.00,,,0.00,VWS V14.01,2013-12-03 06:11:00,
2013-12-03 01:16:00,33.3,32.8,29.74,NNW,338,3.6,4.7,98,0.00,,,0.00,VWS V14.01,2013-12-03 06:16:00,
2013-12-03 01:21:00,33.3,32.8,29.74,NNW,338,0.0,1.6,98,0.00,,,0.00,VWS V14.01,2013-12-03 06:21:00,
2013-12-03 01:26:00,33.3,32.8,29.74,NW,315,3.1,4.0,98,0.00,,,0.00,VWS V14.01,2013-12-03 06:26:00,
2013-12-03 01:30:00,33.3,32.8,29.74,NNW,338,1.3,1.3,98,0.00,,,0.00,VWS V14.01,2013-12-03 06:30:00,
2013-12-03 01:31:00,33.3,32.8,29.74,NNW,338,3.1,4.0,98,0.00,,,0.00,VWS V14.01,2013-12-03 06:31:00,
2013-12-03 01:36:00,33.3,32.8,29.74,NNW,338,3.8,3.8,98,0.00,,,0.00,VWS V14.01,2013-12-03 06:36:00,
2013-12-03 01:41:00,33.3,32.8,29.74,NW,315,3.4,3.8,98,0.00,,,0.00,VWS V14.01,2013-12-03 06:41:00,
2013-12-03 01:46:00,33.5,33.0,29.74,NNW,338,2.7,4.0,98,0.00,,,0.00,VWS V14.01,2013-12-03 06:46:00,
2013-12-03 01:51:00,33.5,33.0,29.74,NW,315,1.3,3.4,98,0.00,,,0.00,VWS V14.01,2013-12-03 06:51:00,
2013-12-03 01:56:00,33.5,33.0,29.74,NNW,338,1.3,4.3,98,0.00,,,0.00,VWS V14.01,2013-12-03 06:56:00,
2013-12-03 02:00:00,33.5,33.0,29.74,NW,315,1.1,3.1,98,0.00,,,0.00,VWS V14.01,2013-12-03 07:00:00,
2013-12-03 02:01:00,33.5,33.0,29.74,NW,315,0.9,2.7,98,0.00,,,0.00,VWS V14.01,2013-12-03 07:01:00,
2013-12-03 02:06:00,33.5,33.0,29.74,NNW,338,2.0,4.0,98,0.00,,,0.00,VWS V14.01,2013-12-03 07:06:00,
2013-12-03 02:11:00,33.5,33.0,29.74,NNW,338,0.9,3.1,98,0.00,,,0.00,VWS V14.01,2013-12-03 07:11:00,
2013-12-03 02:16:00,33.5,33.0,29.74,NW,315,2.5,2.7,98,0.00,,,0.00,VWS V14.01,2013-12-03 07:16:00,
2013-12-03 02:21:00,33.5,33.0,29.74,NNW,338,3.1,3.1,98,0.00,,,0.00,VWS V14.01,2013-12-03 07:21:00,
2013-12-03 02:26:00,33.5,33.0,29.74,NW,315,1.3,2.7,98,0.00,,,0.00,VWS V14.01,2013-12-03 07:26:00,
2013-12-03 02:30:00,33.5,33.0,29.74,NW,315,0.0,2.7,98,0.00,,,0.00,VWS V14.01,2013-12-03 07:30:00,
2013-12-03 02:31:00,33.5,33.0,29.74,NW,315,0.0,1.1,98,0.00,,,0.00,VWS V14.01,2013-12-03 07:31:00,
2013-12-03 02:36:00,33.5,33.0,29.74,NW,315,2.2,2.2,98,0.00,,,0.00,VWS V14.01,2013-12-03 07:36:00,
2013-12-03 02:41:00,33.5,33.0,29.74,NNW,338,0.0,2.0,98,0.00,,,0.00,VWS V14.01,2013-12-03 07:41:00,
2013-12-03 02:46:00,33.5,33.0,29.74,NNW,338,0.0,0.9,98,0.00,,,0.00,VWS V14.01,2013-12-03 07:46:00,
2013-12-03 02:51:00,33.5,33.0,29.74,NNW,338,0.9,3.4,98,0.00,,,0.00,VWS V14.01,2013-12-03 07:51:00,
2013-12-03 02:56:00,33.5,33.0,29.74,NW,315,2.5,2.5,98,0.00,,,0.00,VWS V14.01,2013-12-03 07:56:00,
2013-12-03 03:00:00,33.5,33.0,29.74,NW,315,1.1,3.4,98,0.00,,,0.00,VWS V14.01,2013-12-03 08:00:00,
2013-12-03 03:01:00,33.5,33.0,29.74,NW,315,2.7,2.9,98,0.00,,,0.00,VWS V14.01,2013-12-03 08:01:00,
2013-12-03 03:06:00,33.5,33.0,29.71,NW,315,1.1,3.1,98,0.00,,,0.00,VWS V14.01,2013-12-03 08:06:00,
2013-12-03 03:11:00,33.5,33.0,29.71,NNW,338,0.9,3.1,98,0.00,,,0.00,VWS V14.01,2013-12-03 08:11:00,
2013-12-03 03:16:00,33.5,33.0,29.71,NNW,338,0.0,3.1,98,0.00,,,0.00,VWS V14.01,2013-12-03 08:16:00,
2013-12-03 03:21:00,33.5,33.0,29.71,NNW,338,1.1,3.8,98,0.00,,,0.00,VWS V14.01,2013-12-03 08:21:00,
2013-12-03 03:26:00,33.5,33.0,29.71,NNW,338,0.0,2.5,98,0.00,,,0.00,VWS V14.01,2013-12-03 08:26:00,
2013-12-03 03:30:00,33.5,33.0,29.71,NNW,338,0.0,0.0,98,0.00,,,0.00,VWS V14.01,2013-12-03 08:30:00,
2013-12-03 03:31:00,33.5,33.0,29.71,NNW,338,1.6,2.9,98,0.00,,,0.00,VWS V14.01,2013-12-03 08:31:00,
2013-12-03 03:36:00,33.5,33.0,29.71,NNW,338,1.3,3.8,98,0.00,,,0.00,VWS V14.01,2013-12-03 08:36:00,
2013-12-03 03:41:00,33.5,33.0,29.71,NNW,338,2.5,3.6,98,0.00,,,0.00,VWS V14.01,2013-12-03 08:41:00,
2013-12-03 03:46:00,33.5,33.0,29.71,NNW,338,0.0,3.6,98,0.00,,,0.00,VWS V14.01,2013-12-03 08:46:00,
2013-12-03 03:51:00,33.5,33.0,29.71,NNW,338,3.6,3.8,98,0.00,,,0.00,VWS V14.01,2013-12-03 08:51:00,
2013-12-03 03:56:00,33.5,33.0,29.71,NNW,338,2.2,2.5,98,0.00,,,0.00,VWS V14.01,2013-12-03 08:56:00,
2013-12-03 04:00:00,33.5,33.0,29.71,NNW,338,2.5,3.1,98,0.00,,,0.00,VWS V14.01,2013-12-03 09:00:00,
2013-12-03 04:01:00,33.5,33.0,29.71,NNW,338,1.1,4.3,98,0.00,,,0.00,VWS V14.01,2013-12-03 09:01:00,
2013-12-03 04:06:00,33.5,33.0,29.71,NNW,338,0.0,4.7,98,0.00,,,0.00,VWS V14.01,2013-12-03 09:06:00,
2013-12-03 04:11:00,33.5,33.0,29.71,NNW,338,3.8,4.0,98,0.00,,,0.00,VWS V14.01,2013-12-03 09:11:00,
2013-12-03 04:16:00,33.5,33.0,29.71,NNW,338,4.0,4.0,98,0.00,,,0.00,VWS V14.01,2013-12-03 09:16:00,
2013-12-03 04:21:00,33.5,33.0,29.71,NW,315,1.3,3.8,98,0.00,,,0.00,VWS V14.01,2013-12-03 09:21:00,
2013-12-03 04:26:00,33.3,32.8,29.71,NW,315,3.4,3.8,98,0.00,,,0.00,VWS V14.01,2013-12-03 09:26:00,
2013-12-03 04:30:00,33.3,32.8,29.71,NNW,338,2.7,3.6,98,0.00,,,0.00,VWS V14.01,2013-12-03 09:30:00,
2013-12-03 04:31:00,33.3,32.8,29.71,NNW,338,2.2,4.3,98,0.00,,,0.00,VWS V14.01,2013-12-03 09:31:00,
2013-12-03 04:36:00,33.3,32.8,29.71,NNW,338,2.5,2.9,98,0.00,,,0.00,VWS V14.01,2013-12-03 09:36:00,
2013-12-03 04:41:00,33.3,32.8,29.71,NW,315,2.7,3.1,98,0.00,,,0.00,VWS V14.01,2013-12-03 09:41:00,
2013-12-03 04:46:00,33.3,32.8,29.71,NW,315,2.7,4.3,98,0.00,,,0.00,VWS V14.01,2013-12-03 09:46:00,
2013-12-03 04:51:00,33.3,32.8,29.71,NNW,338,0.9,4.0,98,0.00,,,0.00,VWS V14.01,2013-12-03 09:51:00,
2013-12-03 04:56:00,33.3,32.8,29.71,NW,315,4.9,4.9,98,0.00,,,0.00,VWS V14.01,2013-12-03 09:56:00,
2013-12-03 05:00:00,33.3,32.8,29.71,NNW,338,4.9,4.9,98,0.00,,,0.00,VWS V14.01,2013-12-03 10:00:00,
2013-12-03 05:01:00,33.3,32.8,29.71,NNW,338,0.0,4.3,98,0.00,,,0.00,VWS V14.01,2013-12-03 10:01:00,
2013-12-03 05:06:00,33.3,32.8,29.71,NW,315,3.8,3.8,98,0.00,,,0.00,VWS V14.01,2013-12-03 10:06:00,
2013-12-03 05:11:00,33.3,32.8,29.71,NNW,338,2.9,3.1,98,0.00,,,0.00,VWS V14.01,2013-12-03 10:11:00,
2013-12-03 05:16:00,33.3,32.8,29.71,NNW,338,1.3,3.6,98,0.00,,,0.00,VWS V14.01,2013-12-03 10:16:00,
2013-12-03 05:21:00,33.3,32.8,29.71,NW,315,5.4,5.4,98,0.00,,,0.00,VWS V14.01,2013-12-03 10:21:00,
2013-12-03 05:26:00,33.3,32.8,29.74,NNW,338,2.9,4.3,98,0.00,,,0.00,VWS V14.01,2013-12-03 10:26:00,
2013-12-03 05:30:00,33.3,32.8,29.74,NNW,338,0.0,3.1,98,0.00,,,0.00,VWS V14.01,2013-12-03 10:30:00,
2013-12-03 05:31:00,33.3,32.8,29.74,NNW,338,0.0,3.1,98,0.00,,,0.00,VWS V14.01,2013-12-03 10:31:00,
2013-12-03 05:36:00,33.3,32.8,29.74,NNW,338,2.7,3.8,98,0.00,,,0.00,VWS V14.01,2013-12-03 10:36:00,
2013-12-03 05:41:00,33.3,32.8,29.74,NNW,338,1.1,3.1,98,0.00,,,0.00,VWS V14.01,2013-12-03 10:41:00,
2013-12-03 05:46:00,33.5,33.0,29.74,NNW,338,3.1,3.6,98,0.00,,,0.00,VWS V14.01,2013-12-03 10:46:00,
2013-12-03 05:51:00,33.5,33.0,29.71,NNW,338,3.8,4.9,98,0.00,,,0.00,VWS V14.01,2013-12-03 10:51:00,
2013-12-03 05:56:00,33.5,33.0,29.71,NNW,338,2.9,4.7,98,0.00,,,0.00,VWS V14.01,2013-12-03 10:56:00,
2013-12-03 06:00:00,33.5,33.0,29.71,NNW,338,3.8,3.8,98,0.00,,SKC,0.00,VWS V15.00,2013-12-03 11:00:00,
2013-12-03 06:01:00,33.5,33.0,29.71,NNW,338,3.1,4.0,98,0.00,,,0.00,VWS V14.01,2013-12-03 11:01:00,
2013-12-03 06:06:00,33.5,33.0,29.71,NNW,338,3.1,3.6,98,0.00,,,0.00,VWS V14.01,2013-12-03 11:06:00,
2013-12-03 06:11:00,33.5,33.0,29.71,NNW,338,3.8,4.3,98,0.00,,,0.00,VWS V14.01,2013-12-03 11:11:00,
2013-12-03 06:16:00,33.5,33.0,29.71,NW,315,2.9,4.0,98,0.00,,,0.00,VWS V14.01,2013-12-03 11:16:00,
2013-12-03 06:21:00,33.5,33.0,29.71,NNW,338,0.0,3.8,98,0.00,,,0.00,VWS V14.01,2013-12-03 11:21:00,
2013-12-03 06:26:00,33.5,33.0,29.71,NW,315,3.6,3.8,98,0.00,,,0.00,VWS V14.01,2013-12-03 11:26:00,
2013-12-03 06:30:00,33.5,33.0,29.71,NNW,338,3.4,4.3,98,0.00,,,0.00,VWS V14.01,2013-12-03 11:30:00,
2013-12-03 06:31:00,33.5,33.0,29.71,NNW,338,3.8,4.9,98,0.00,,,0.00,VWS V14.01,2013-12-03 11:31:00,
2013-12-03 06:36:00,33.3,32.8,29.71,NNW,338,2.7,4.0,98,0.00,,,0.00,VWS V14.01,2013-12-03 11:36:00,
2013-12-03 06:41:00,33.5,33.0,29.71,NNW,338,3.1,5.4,98,0.00,,,0.00,VWS V14.01,2013-12-03 11:41:00,
2013-12-03 06:46:00,33.3,32.8,29.71,NNW,338,3.8,3.8,98,0.00,,,0.00,VWS V14.01,2013-12-03 11:46:00,
2013-12-03 06:51:00,33.5,33.0,29.71,NNW,338,3.6,5.6,98,0.00,,,0.00,VWS V14.01,2013-12-03 11:51:00,
2013-12-03 06:56:00,33.5,33.0,29.71,NNW,338,4.3,4.3,98,0.00,,,0.00,VWS V14.01,2013-12-03 11:56:00,
2013-12-03 07:00:00,33.5,33.0,29.71,NNW,338,3.8,3.8,98,0.00,,,0.00,VWS V14.01,2013-12-03 12:00:00,
2013-12-03 07:01:00,33.5,33.0,29.71,NNW,338,1.3,3.4,98,0.00,,,0.00,VWS V14.01,2013-12-03 12:01:00,
2013-12-03 07:06:00,33.5,33.0,29.71,NNW,338,3.8,4.3,98,0.00,,,0.00,VWS V14.01,2013-12-03 12:06:00,
2013-12-03 07:11:00,33.5,33.0,29.71,NNW,338,1.1,4.0,98,0.00,,,0.00,VWS V14.01,2013-12-03 12:11:00,
2013-12-03 07:16:00,33.5,33.0,29.71,NNW,338,3.4,5.4,98,0.00,,,0.00,VWS V14.01,2013-12-03 12:16:00,
2013-12-03 07:21:00,33.5,33.0,29.71,NNW,338,2.7,4.9,98,0.00,,,0.00,VWS V14.01,2013-12-03 12:21:00,
2013-12-03 07:26:00,33.5,33.0,29.71,NNW,338,5.4,5.4,98,0.00,,,0.00,VWS V14.01,2013-12-03 12:26:00,
2013-12-03 07:30:00,33.5,33.0,29.71,NNW,338,3.8,4.9,98,0.00,,,0.00,VWS V14.01,2013-12-03 12:30:00,
2013-12-03 07:31:00,33.5,33.0,29.71,NW,315,3.8,5.4,98,0.00,,,0.00,VWS V14.01,2013-12-03 12:31:00,
2013-12-03 07:36:00,33.5,33.0,29.71,NNW,338,3.8,5.8,98,0.00,,,0.00,VWS V14.01,2013-12-03 12:36:00,
2013-12-03 07:41:00,33.5,33.0,29.71,NNW,338,1.3,1.6,98,0.00,,,0.00,VWS V14.01,2013-12-03 12:41:00,
2013-12-03 07:46:00,33.5,33.0,29.71,NNW,338,3.4,5.4,98,0.00,,,0.00,VWS V14.01,2013-12-03 12:46:00,
2013-12-03 07:51:00,33.7,33.2,29.71,NW,315,3.1,4.0,98,0.00,,,0.00,VWS V14.01,2013-12-03 12:51:00,
2013-12-03 07:56:00,33.7,33.2,29.71,NNW,338,3.4,3.8,98,0.00,,,0.00,VWS V14.01,2013-12-03 12:56:00,
2013-12-03 08:00:00,33.7,33.2,29.71,NNW,338,5.4,5.4,98,0.00,,,0.00,VWS V14.01,2013-12-03 13:00:00,
2013-12-03 08:01:00,33.9,33.4,29.71,NNW,338,3.4,4.7,98,0.00,,,0.00,VWS V14.01,2013-12-03 13:01:00,
2013-12-03 08:06:00,33.9,33.4,29.71,NNW,338,4.9,6.5,98,0.00,,,0.00,VWS V14.01,2013-12-03 13:06:00,
2013-12-03 08:11:00,33.9,33.4,29.71,NNW,338,6.3,6.3,98,0.00,,,0.00,VWS V14.01,2013-12-03 13:11:00,
2013-12-03 08:16:00,33.9,33.4,29.71,NNW,338,2.5,3.4,98,0.00,,,0.00,VWS V14.01,2013-12-03 13:16:00,
2013-12-03 08:21:00,34.1,33.6,29.71,NNW,338,4.9,4.9,98,0.00,,,0.00,VWS V14.01,2013-12-03 13:21:00,
2013-12-03 08:26:00,34.1,33.6,29.71,NNW,338,3.6,4.9,98,0.00,,,0.00,VWS V14.01,2013-12-03 13:26:00,
2013-12-03 08:30:00,34.1,33.6,29.71,NNW,338,4.9,4.9,98,0.00,,,0.00,VWS V14.01,2013-12-03 13:30:00,
2013-12-03 08:31:00,34.1,33.6,29.71,NNW,338,6.0,6.0,98,0.00,,,0.00,VWS V14.01,2013-12-03 13:31:00,
2013-12-03 08:36:00,34.1,33.6,29.71,NNW,338,8.1,8.1,98,0.00,,,0.00,VWS V14.01,2013-12-03 13:36:00,
2013-12-03 08:41:00,34.1,33.6,29.71,NNW,338,2.9,6.5,98,0.00,,,0.00,VWS V14.01,2013-12-03 13:41:00,
2013-12-03 08:46:00,34.1,33.6,29.71,NNW,338,3.8,4.3,98,0.00,,,0.00,VWS V14.01,2013-12-03 13:46:00,
2013-12-03 08:51:00,34.1,33.6,29.71,NNW,338,4.3,7.4,98,0.00,,,0.00,VWS V14.01,2013-12-03 13:51:00,
2013-12-03 08:56:00,34.1,33.6,29.71,NW,315,1.1,5.8,98,0.00,,,0.00,VWS V14.01,2013-12-03 13:56:00,
2013-12-03 09:00:00,34.1,33.6,29.71,NNW,338,3.6,3.6,98,0.00,,,0.00,VWS V14.01,2013-12-03 14:00:00,
2013-12-03 09:01:00,34.2,33.7,29.71,NNW,338,0.0,3.6,98,0.00,,,0.00,VWS V14.01,2013-12-03 14:01:00,
2013-12-03 09:06:00,34.2,33.7,29.71,NNW,338,0.9,3.6,98,0.00,,,0.00,VWS V14.01,2013-12-03 14:06:00,
2013-12-03 09:11:00,34.2,33.7,29.71,NNW,338,3.6,6.7,98,0.00,,,0.00,VWS V14.01,2013-12-03 14:11:00,
2013-12-03 09:16:00,34.2,33.7,29.71,NNW,338,4.3,4.3,98,0.00,,,0.00,VWS V14.01,2013-12-03 14:16:00,
2013-12-03 09:21:00,34.4,33.9,29.71,NNW,338,6.0,6.0,98,0.00,,,0.00,VWS V14.01,2013-12-03 14:21:00,
2013-12-03 09:26:00,34.4,33.9,29.71,NNW,338,4.3,7.4,98,0.00,,,0.00,VWS V14.01,2013-12-03 14:26:00,
2013-12-03 09:30:00,35.3,34.8,29.68,NNW,338,6.5,8.5,98,0.00,,SKC,0.00,VWS V15.00,2013-12-03 14:30:00,
2013-12-03 09:31:00,34.4,33.9,29.71,NNW,338,0.0,5.6,98,0.00,,,0.00,VWS V14.01,2013-12-03 14:31:00,
2013-12-03 09:36:00,34.6,34.1,29.71,NNW,338,0.0,2.5,98,0.00,,,0.00,VWS V14.01,2013-12-03 14:36:00,
2013-12-03 09:41:00,34.8,34.3,29.71,NW,315,5.4,5.4,98,0.00,,,0.00,VWS V14.01,2013-12-03 14:41:00,
2013-12-03 09:46:00,34.8,34.3,29.71,NW,315,3.1,3.6,98,0.00,,,0.00,VWS V14.01,2013-12-03 14:46:00,
2013-12-03 09:51:00,34.8,34.3,29.71,NNW,338,0.9,0.9,98,0.00,,,0.00,VWS V14.01,2013-12-03 14:51:00,
2013-12-03 09:56:00,35.0,34.5,29.71,NNW,338,3.4,3.8,98,0.00,,,0.00,VWS V14.01,2013-12-03 14:56:00,
2013-12-03 10:00:00,35.0,34.5,29.71,NNW,338,4.9,4.9,98,0.00,,,0.00,VWS V14.01,2013-12-03 15:00:00,
2013-12-03 10:02:00,35.1,34.6,29.71,NNW,338,3.1,5.4,98,0.00,,,0.00,VWS V14.01,2013-12-03 15:02:00,
2013-12-03 10:07:00,35.1,34.6,29.71,NNW,338,4.9,6.0,98,0.00,,,0.00,VWS V14.01,2013-12-03 15:07:00,
2013-12-03 10:12:00,35.1,34.6,29.71,NNW,338,4.3,4.9,98,0.00,,,0.00,VWS V14.01,2013-12-03 15:12:00,
2013-12-03 10:16:00,35.1,34.6,29.71,NNW,338,5.8,5.8,98,0.00,,,0.00,VWS V14.01,2013-12-03 15:16:00,
2013-12-03 10:22:00,35.1,34.6,29.68,NNW,338,7.8,7.8,98,0.00,,,0.00,VWS V14.01,2013-12-03 15:22:00,
2013-12-03 10:27:00,35.3,34.8,29.68,NW,315,6.5,6.5,98,0.00,,,0.00,VWS V14.01,2013-12-03 15:27:00,
2013-12-03 10:30:00,35.3,34.8,29.68,NNW,338,6.5,8.5,98,0.00,,,0.00,VWS V14.01,2013-12-03 15:30:00,
2013-12-03 10:32:00,35.5,35.0,29.68,NNW,338,3.1,6.3,98,0.00,,,0.00,VWS V14.01,2013-12-03 15:32:00,
2013-12-03 10:37:00,35.9,35.3,29.68,NNW,338,4.3,4.3,98,0.00,,,0.00,VWS V14.01,2013-12-03 15:37:00,
2013-12-03 10:42:00,36.0,35.5,29.68,NNW,338,2.7,3.8,98,0.00,,,0.00,VWS V14.01,2013-12-03 15:42:00,
2013-12-03 10:47:00,36.0,35.5,29.68,NW,315,5.4,7.2,98,0.00,,,0.00,VWS V14.01,2013-12-03 15:47:00,
2013-12-03 10:51:00,36.2,35.7,29.65,NNW,338,3.1,4.7,98,0.00,,,0.00,VWS V14.01,2013-12-03 15:51:00,
2013-12-03 10:57:00,36.4,35.9,29.65,NNW,338,2.0,4.7,98,0.00,,,0.00,VWS V14.01,2013-12-03 15:57:00,
2013-12-03 11:00:00,36.6,36.1,29.65,NW,315,0.0,3.8,98,0.00,,,0.00,VWS V14.01,2013-12-03 16:00:00,
2013-12-03 11:02:00,36.6,36.1,29.65,NW,315,6.0,6.0,98,0.00,,,0.00,VWS V14.01,2013-12-03 16:02:00,
2013-12-03 11:06:00,36.6,36.1,29.65,NNW,338,4.3,5.4,98,0.00,,,0.00,VWS V14.01,2013-12-03 16:06:00,
2013-12-03 11:11:00,36.6,36.1,29.65,NNW,338,6.0,6.0,98,0.00,,,0.00,VWS V14.01,2013-12-03 16:11:00,
2013-12-03 11:16:00,36.8,36.2,29.65,NW,315,4.3,5.6,98,0.00,,,0.00,VWS V14.01,2013-12-03 16:16:00,
2013-12-03 11:21:00,36.9,36.4,29.68,NNW,338,4.0,4.3,98,0.00,,,0.00,VWS V14.01,2013-12-03 16:21:00,
2013-12-03 11:26:00,36.9,36.4,29.68,NNW,338,4.9,4.9,98,0.00,,,0.00,VWS V14.01,2013-12-03 16:26:00,
2013-12-03 11:30:00,37.1,36.6,29.68,NNW,338,3.4,3.4,98,0.00,,,0.00,VWS V14.01,2013-12-03 16:30:00,
2013-12-03 11:31:00,37.1,36.6,29.68,NNW,338,3.1,5.8,98,0.00,,,0.00,VWS V14.01,2013-12-03 16:31:00,
2013-12-03 11:36:00,37.3,36.8,29.71,NNW,338,4.3,5.6,98,0.00,,,0.00,VWS V14.01,2013-12-03 16:36:00,
2013-12-03 11:41:00,37.1,36.6,29.71,NNW,338,4.9,4.9,98,0.00,,,0.00,VWS V14.01,2013-12-03 16:41:00,
2013-12-03 11:46:00,37.3,36.8,29.71,NNW,338,0.0,6.0,98,0.00,,,0.00,VWS V14.01,2013-12-03 16:46:00,
2013-12-03 11:51:00,37.3,36.8,29.68,NNW,338,2.9,4.3,98,0.00,,,0.00,VWS V14.01,2013-12-03 16:51:00,
2013-12-03 11:57:00,37.3,36.8,29.68,North,0,0.0,6.5,98,0.00,,,0.00,VWS V14.01,2013-12-03 16:57:00,
2013-12-03 12:00:00,37.3,36.8,29.68,NNW,338,2.7,5.6,98,0.00,,,0.00,VWS V14.01,2013-12-03 17:00:00,
2013-12-03 12:02:00,37.5,37.0,29.68,NNW,338,4.3,4.3,98,0.00,,,0.00,VWS V14.01,2013-12-03 17:02:00,
2013-12-03 12:07:00,37.5,37.0,29.68,NNW,338,4.3,4.9,98,0.00,,,0.00,VWS V14.01,2013-12-03 17:07:00,
2013-12-03 12:12:00,37.3,36.8,29.68,NNW,338,5.8,5.8,98,0.00,,,0.00,VWS V14.01,2013-12-03 17:12:00,
2013-12-03 12:17:00,37.3,36.8,29.68,NW,315,2.9,4.3,98,0.00,,,0.00,VWS V14.01,2013-12-03 17:17:00,
2013-12-03 12:22:00,37.5,37.0,29.68,NNW,338,4.3,6.0,98,0.00,,,0.00,VWS V14.01,2013-12-03 17:22:00,
2013-12-03 12:27:00,37.5,37.0,29.68,NNW,338,0.0,4.3,98,0.00,,,0.00,VWS V14.01,2013-12-03 17:27:00,
2013-12-03 12:30:00,37.5,37.0,29.68,NNW,338,2.2,3.6,98,0.00,,,0.00,VWS V14.01,2013-12-03 17:30:00,
2013-12-03 12:32:00,37.7,37.2,29.68,NNW,338,3.1,4.7,98,0.00,,,0.00,VWS V14.01,2013-12-03 17:32:00,
2013-12-03 12:37:00,37.5,37.0,29.68,NNW,338,4.3,4.3,98,0.00,,,0.00,VWS V14.01,2013-12-03 17:37:00,
2013-12-03 12:42:00,37.7,37.2,29.68,NNW,338,2.5,4.0,98,0.00,,,0.00,VWS V14.01,2013-12-03 17:42:00,
2013-12-03 12:47:00,37.8,37.3,29.68,NNW,338,1.6,3.4,98,0.00,,,0.00,VWS V14.01,2013-12-03 17:47:00,
2013-12-03 12:52:00,38.0,37.5,29.68,NNW,338,0.0,0.9,98,0.00,,,0.00,VWS V14.01,2013-12-03 17:52:00,
2013-12-03 12:57:00,38.2,37.7,29.68,NNW,338,0.9,3.6,98,0.00,,,0.00,VWS V14.01,2013-12-03 17:57:00,
2013-12-03 13:00:00,38.2,37.7,29.68,NNW,338,4.3,4.3,98,0.00,,,0.00,VWS V14.01,2013-12-03 18:00:00,
2013-12-03 13:02:00,38.2,37.7,29.68,NNW,338,4.9,4.9,98,0.00,,,0.00,VWS V14.01,2013-12-03 18:02:00,
2013-12-03 13:07:00,37.8,37.3,29.65,NNW,338,3.4,6.0,98,0.00,,,0.00,VWS V14.01,2013-12-03 18:07:00,
2013-12-03 13:12:00,37.8,37.3,29.65,NNW,338,4.9,6.5,98,0.00,,,0.00,VWS V14.01,2013-12-03 18:12:00,
2013-12-03 13:17:00,37.8,37.3,29.65,NW,315,3.8,7.2,98,0.00,,,0.00,VWS V14.01,2013-12-03 18:17:00,
2013-12-03 13:22:00,38.2,37.7,29.65,NNW,338,6.0,7.4,98,0.00,,,0.00,VWS V14.01,2013-12-03 18:22:00,
2013-12-03 13:27:00,38.2,37.7,29.65,NNW,338,5.4,7.2,98,0.00,,,0.00,VWS V14.01,2013-12-03 18:27:00,
2013-12-03 13:30:00,38.0,37.5,29.65,NNW,338,5.6,6.3,98,0.00,,,0.00,VWS V14.01,2013-12-03 18:30:00,
2013-12-03 13:32:00,38.0,37.5,29.65,NNW,338,4.0,8.5,98,0.00,,,0.00,VWS V14.01,2013-12-03 18:32:00,
2013-12-03 13:37:00,38.0,37.5,29.65,NW,315,5.6,6.0,98,0.00,,,0.00,VWS V14.01,2013-12-03 18:37:00,
2013-12-03 13:42:00,38.0,37.5,29.65,NNW,338,5.4,5.4,98,0.00,,,0.00,VWS V14.01,2013-12-03 18:42:00,
2013-12-03 13:47:00,38.0,37.5,29.65,NNW,338,5.8,6.3,98,0.00,,,0.00,VWS V14.01,2013-12-03 18:47:00,
2013-12-03 13:52:00,38.2,37.7,29.65,NNW,338,5.6,6.0,98,0.00,,,0.00,VWS V14.01,2013-12-03 18:52:00,
2013-12-03 13:57:00,38.4,37.9,29.65,NNW,338,3.1,7.6,98,0.00,,,0.00,VWS V14.01,2013-12-03 18:57:00,
2013-12-03 14:00:00,38.4,37.9,29.65,NNW,338,7.6,7.6,98,0.00,,,0.00,VWS V14.01,2013-12-03 19:00:00,
2013-12-03 14:02:00,38.6,38.0,29.65,NNW,338,8.7,8.7,98,0.00,,,0.00,VWS V14.01,2013-12-03 19:02:00,
2013-12-03 14:07:00,38.6,37.8,29.65,NNW,338,5.8,5.8,97,0.00,,,0.00,VWS V14.01,2013-12-03 19:07:00,
2013-12-03 14:12:00,38.9,38.1,29.65,NNW,338,3.8,6.0,97,0.00,,,0.00,VWS V14.01,2013-12-03 19:12:00,
2013-12-03 14:18:00,39.1,38.3,29.65,NNW,338,5.6,7.2,97,0.00,,,0.00,VWS V14.01,2013-12-03 19:18:00,
2013-12-03 14:23:00,39.1,38.3,29.65,NNW,338,5.8,6.0,97,0.00,,,0.00,VWS V14.01,2013-12-03 19:23:00,
2013-12-03 14:28:00,38.9,37.6,29.65,NNW,338,4.0,5.6,95,0.00,,,0.00,VWS V14.01,2013-12-03 19:28:00,
2013-12-03 14:30:00,38.7,37.4,29.65,NNW,338,3.4,7.4,95,0.00,,,0.00,VWS V14.01,2013-12-03 19:30:00,
2013-12-03 14:33:00,38.7,37.4,29.65,NNW,338,6.3,8.7,95,0.00,,,0.00,VWS V14.01,2013-12-03 19:33:00,
2013-12-03 14:38:00,38.4,36.8,29.65,NNW,338,4.3,6.3,94,0.00,,,0.00,VWS V14.01,2013-12-03 19:38:00,
2013-12-03 14:43:00,38.4,37.1,29.65,NNW,338,2.9,5.4,95,0.00,,,0.00,VWS V14.01,2013-12-03 19:43:00,
2013-12-03 14:48:00,38.4,37.1,29.65,NNW,338,6.3,6.3,95,0.00,,,0.00,VWS V14.01,2013-12-03 19:48:00,
2013-12-03 14:53:00,38.2,37.2,29.65,NNW,338,5.4,7.6,96,0.00,,,0.00,VWS V14.01,2013-12-03 19:53:00,
2013-12-03 14:58:00,38.0,37.0,29.65,NNW,338,6.0,10.3,96,0.00,,,0.00,VWS V14.01,2013-12-03 19:58:00,
2013-12-03 15:00:00,38.0,37.0,29.65,NNW,338,5.8,6.3,96,0.00,,,0.00,VWS V14.01,2013-12-03 20:00:00,
2013-12-03 15:03:00,37.8,36.8,29.65,WNW,292,6.5,6.5,96,0.00,,,0.00,VWS V14.01,2013-12-03 20:03:00,
2013-12-03 15:08:00,37.8,37.1,29.65,NNW,338,6.9,8.7,97,0.00,,,0.00,VWS V14.01,2013-12-03 20:08:00,
2013-12-03 15:13:00,37.7,36.9,29.65,NNW,338,3.6,7.6,97,0.00,,,0.00,VWS V14.01,2013-12-03 20:13:00,
2013-12-03 15:18:00,37.7,37.2,29.65,NNW,338,6.0,6.5,98,0.00,,,0.00,VWS V14.01,2013-12-03 20:18:00,
2013-12-03 15:23:00,37.7,37.2,29.65,NW,315,5.6,7.2,98,0.00,,,0.00,VWS V14.01,2013-12-03 20:23:00,
2013-12-03 15:28:00,37.7,37.2,29.65,NNW,338,9.6,9.6,98,0.00,,,0.00,VWS V14.01,2013-12-03 20:28:00,
2013-12-03 15:30:00,37.7,37.2,29.65,North,0,5.8,9.6,98,0.00,,,0.00,VWS V14.01,2013-12-03 20:30:00,
2013-12-03 15:33:00,37.5,37.0,29.65,NNW,338,7.6,7.6,98,0.00,,,0.00,VWS V14.01,2013-12-03 20:33:00,
2013-12-03 15:38:00,37.5,37.0,29.65,NNW,338,7.8,7.8,98,0.00,,,0.00,VWS V14.01,2013-12-03 20:38:00,
2013-12-03 15:43:00,37.3,36.8,29.65,NNW,338,7.2,7.4,98,0.00,,,0.00,VWS V14.01,2013-12-03 20:43:00,
2013-12-03 15:48:00,37.1,36.6,29.65,NNW,338,5.4,6.7,98,0.00,,,0.00,VWS V14.01,2013-12-03 20:48:00,
2013-12-03 15:53:00,36.9,36.4,29.65,NW,315,5.6,5.6,98,0.00,,,0.00,VWS V14.01,2013-12-03 20:53:00,
2013-12-03 15:58:00,36.9,36.4,29.65,NNW,338,4.3,6.5,98,0.00,,,0.00,VWS V14.01,2013-12-03 20:58:00,
2013-12-03 16:00:00,36.9,36.4,29.65,NNW,338,7.6,7.6,98,0.00,,,0.00,VWS V14.01,2013-12-03 21:00:00,
2013-12-03 16:03:00,36.8,36.2,29.65,NW,315,6.5,6.5,98,0.00,,,0.00,VWS V14.01,2013-12-03 21:03:00,
2013-12-03 16:08:00,36.6,36.1,29.65,NNW,338,3.8,5.8,98,0.00,,,0.00,VWS V14.01,2013-12-03 21:08:00,
2013-12-03 16:13:00,36.6,36.1,29.65,NNW,338,4.9,6.5,98,0.00,,,0.00,VWS V14.01,2013-12-03 21:13:00,
2013-12-03 16:18:00,36.4,35.9,29.65,NNW,338,3.4,6.5,98,0.00,,,0.00,VWS V14.01,2013-12-03 21:18:00,
2013-12-03 16:23:00,36.4,35.9,29.65,NNW,338,3.4,5.6,98,0.00,,,0.00,VWS V14.01,2013-12-03 21:23:00,
2013-12-03 16:28:00,36.0,35.5,29.65,NNW,338,3.8,3.8,98,0.00,,,0.00,VWS V14.01,2013-12-03 21:28:00,
2013-12-03 16:30:00,36.0,35.5,29.65,NNW,338,4.0,4.0,98,0.00,,,0.00,VWS V14.01,2013-12-03 21:30:00,
2013-12-03 16:33:00,36.0,35.5,29.65,NNW,338,2.7,2.7,98,0.00,,,0.00,VWS V14.01,2013-12-03 21:33:00,
2013-12-03 16:38:00,35.7,35.2,29.62,NNW,338,2.5,3.4,98,0.00,,,0.00,VWS V14.01,2013-12-03 21:38:00,
2013-12-03 16:43:00,35.5,35.0,29.62,NW,315,2.5,3.6,98,0.00,,,0.00,VWS V14.01,2013-12-03 21:43:00,
2013-12-03 16:48:00,35.3,34.8,29.62,NNW,338,2.7,3.6,98,0.00,,,0.00,VWS V14.01,2013-12-03 21:48:00,
2013-12-03 16:53:00,35.1,34.6,29.62,NNW,338,2.5,2.5,98,0.00,,,0.00,VWS V14.01,2013-12-03 21:53:00,
2013-12-03 16:58:00,34.8,34.3,29.62,NNW,338,3.4,3.4,98,0.00,,,0.00,VWS V14.01,2013-12-03 21:58:00,
2013-12-03 17:00:00,34.8,34.3,29.62,NNW,338,4.3,4.3,98,0.00,,,0.00,VWS V14.01,2013-12-03 22:00:00,
2013-12-03 17:03:00,34.8,34.3,29.62,NW,315,3.8,3.8,98,0.00,,,0.00,VWS V14.01,2013-12-03 22:03:00,
2013-12-03 17:08:00,35.0,34.5,29.65,NW,315,3.1,5.4,98,0.00,,,0.00,VWS V14.01,2013-12-03 22:08:00,
2013-12-03 17:13:00,34.8,34.3,29.65,NNW,338,5.6,5.6,98,0.00,,,0.00,VWS V14.01,2013-12-03 22:13:00,
2013-12-03 17:18:00,35.1,34.6,29.65,NNW,338,3.6,5.6,98,0.00,,,0.00,VWS V14.01,2013-12-03 22:18:00,
2013-12-03 17:23:00,35.3,34.8,29.62,NW,315,3.6,5.8,98,0.00,,,0.00,VWS V14.01,2013-12-03 22:23:00,
2013-12-03 17:28:00,35.3,34.8,29.62,NNW,338,4.9,6.5,98,0.00,,,0.00,VWS V14.01,2013-12-03 22:28:00,
2013-12-03 17:30:00,35.5,35.0,29.62,NNW,338,5.6,6.5,98,0.00,,,0.00,VWS V14.01,2013-12-03 22:30:00,
2013-12-03 17:33:00,35.5,35.0,29.62,NW,315,6.5,6.5,98,0.00,,,0.00,VWS V14.01,2013-12-03 22:33:00,
2013-12-03 17:38:00,35.9,35.3,29.62,NNW,338,4.3,5.8,98,0.00,,,0.00,VWS V14.01,2013-12-03 22:38:00,
2013-12-03 17:43:00,35.9,35.3,29.62,NNW,338,5.6,7.4,98,0.00,,,0.00,VWS V14.01,2013-12-03 22:43:00,
2013-12-03 17:48:00,36.0,35.5,29.62,NNW,338,4.9,5.4,98,0.00,,,0.00,VWS V14.01,2013-12-03 22:48:00,
2013-12-03 17:53:00,36.0,35.5,29.62,NW,315,4.7,4.7,98,0.00,,,0.00,VWS V14.01,2013-12-03 22:53:00,
2013-12-03 17:58:00,36.0,35.5,29.62,NNW,338,3.8,5.8,98,0.00,,,0.00,VWS V14.01,2013-12-03 22:58:00,
2013-12-03 18:00:00,36.0,35.5,29.62,NNW,338,4.3,4.9,98,0.00,,,0.00,VWS V14.01,2013-12-03 23:00:00,
2013-12-03 18:03:00,36.0,35.5,29.62,NNW,338,4.9,5.4,98,0.00,,,0.00,VWS V14.01,2013-12-03 23:03:00,
2013-12-03 18:08:00,36.0,35.5,29.62,NNW,338,5.8,6.5,98,0.00,,,0.00,VWS V14.01,2013-12-03 23:08:00,
2013-12-03 18:13:00,36.0,35.5,29.62,NNW,338,5.4,5.8,98,0.00,,,0.00,VWS V14.01,2013-12-03 23:13:00,
2013-12-03 18:18:00,35.7,35.2,29.62,NNW,338,4.0,5.8,98,0.00,,,0.00,VWS V14.01,2013-12-03 23:18:00,
2013-12-03 18:23:00,35.7,35.2,29.62,NNW,338,6.0,6.3,98,0.00,,,0.00,VWS V14.01,2013-12-03 23:23:00,
2013-12-03 18:28:00,35.7,35.2,29.62,NNW,338,6.5,6.5,98,0.00,,,0.00,VWS V14.01,2013-12-03 23:28:00,
2013-12-03 18:30:00,35.7,35.2,29.62,NNW,338,4.0,6.5,98,0.00,,,0.00,VWS V14.01,2013-12-03 23:30:00,
2013-12-03 18:33:00,35.9,35.3,29.62,NNW,338,4.9,7.2,98,0.00,,,0.00,VWS V14.01,2013-12-03 23:33:00,
2013-12-03 18:38:00,35.7,35.2,29.62,NNW,338,6.3,7.8,98,0.00,,,0.00,VWS V14.01,2013-12-03 23:38:00,
2013-12-03 18:43:00,35.7,35.2,29.62,NNW,338,5.6,5.8,98,0.00,,,0.00,VWS V14.01,2013-12-03 23:43:00,
2013-12-03 18:48:00,35.9,35.3,29.62,NNW,338,5.6,6.0,98,0.00,,,0.00,VWS V14.01,2013-12-03 23:48:00,
2013-12-03 18:53:00,35.9,35.3,29.62,NNW,338,5.4,7.2,98,0.00,,,0.00,VWS V14.01,2013-12-03 23:53:00,
2013-12-03 18:58:00,35.7,35.2,29.62,NNW,338,6.0,6.0,98,0.00,,,0.00,VWS V14.01,2013-12-03 23:58:00,
2013-12-03 19:00:00,35.7,35.2,29.62,NNW,338,4.0,6.5,98,0.00,,,0.00,VWS V14.01,2013-12-04 00:00:00,
2013-12-03 19:03:00,35.5,35.0,29.62,NW,315,4.0,7.4,98,0.00,,,0.00,VWS V14.01,2013-12-04 00:03:00,
2013-12-03 19:08:00,35.5,35.0,29.62,NNW,338,4.3,6.0,98,0.00,,,0.00,VWS V14.01,2013-12-04 00:08:00,
2013-12-03 19:13:00,35.7,35.2,29.62,NNW,338,5.8,7.4,98,0.00,,,0.00,VWS V14.01,2013-12-04 00:13:00,
2013-12-03 19:18:00,35.5,35.0,29.62,NNW,338,5.8,8.1,98,0.00,,,0.00,VWS V14.01,2013-12-04 00:18:00,
2013-12-03 19:23:00,35.3,34.6,29.62,NNW,338,7.8,8.5,97,0.00,,,0.00,VWS V14.01,2013-12-04 00:23:00,
2013-12-03 19:28:00,35.3,34.6,29.62,NW,315,4.9,6.5,97,0.00,,,0.00,VWS V14.01,2013-12-04 00:28:00,
2013-12-03 19:30:00,35.3,34.6,29.62,NNW,338,6.3,6.9,97,0.00,,,0.00,VWS V14.01,2013-12-04 00:30:00,
2013-12-03 19:33:00,35.1,34.4,29.62,NNW,338,5.6,5.6,97,0.00,,,0.00,VWS V14.01,2013-12-04 00:33:00,
2013-12-03 19:38:00,35.1,34.4,29.62,NNW,338,7.4,8.5,97,0.00,,,0.00,VWS V14.01,2013-12-04 00:38:00,
2013-12-03 19:43:00,35.1,34.4,29.62,NNW,338,7.2,8.7,97,0.00,,,0.00,VWS V14.01,2013-12-04 00:43:00,
2013-12-03 19:48:00,35.0,33.9,29.62,NNW,338,4.3,6.3,96,0.00,,,0.00,VWS V14.01,2013-12-04 00:48:00,
2013-12-03 19:53:00,35.1,33.8,29.62,NW,315,6.5,6.5,95,0.00,,,0.00,VWS V14.01,2013-12-04 00:53:00,
2013-12-03 19:58:00,34.8,33.5,29.62,NNW,338,6.0,7.4,95,0.00,,,0.00,VWS V14.01,2013-12-04 00:58:00,
2013-12-03 20:00:00,34.8,33.5,29.62,NNW,338,5.4,7.4,95,0.00,,,0.00,VWS V14.01,2013-12-04 01:00:00,
2013-12-03 20:03:00,34.6,33.3,29.62,NW,315,6.3,6.3,95,0.00,,,0.00,VWS V14.01,2013-12-04 01:03:00,
2013-12-03 20:08:00,34.6,33.3,29.62,NNW,338,6.3,6.3,95,0.00,,,0.00,VWS V14.01,2013-12-04 01:08:00,
2013-12-03 20:13:00,34.6,33.0,29.62,NNW,338,7.8,13.0,94,0.00,,,0.00,VWS V14.01,2013-12-04 01:13:00,
2013-12-03 20:18:00,34.4,32.9,29.62,NNW,338,4.9,5.4,94,0.00,,,0.00,VWS V14.01,2013-12-04 01:18:00,
2013-12-03 20:23:00,34.2,32.7,29.65,NNW,338,6.7,8.5,94,0.00,,,0.00,VWS V14.01,2013-12-04 01:23:00,
2013-12-03 20:28:00,34.1,32.2,29.65,NNW,338,3.4,6.0,93,0.00,,,0.00,VWS V14.01,2013-12-04 01:28:00,
2013-12-03 20:30:00,34.1,32.2,29.65,NNW,338,4.3,6.5,93,0.00,,,0.00,VWS V14.01,2013-12-04 01:30:00,
2013-12-03 20:33:00,34.1,32.2,29.65,NNW,338,3.6,5.6,93,0.00,,,0.00,VWS V14.01,2013-12-04 01:33:00,
2013-12-03 20:38:00,33.9,31.8,29.65,NNW,338,5.4,5.4,92,0.00,,,0.00,VWS V14.01,2013-12-04 01:38:00,
2013-12-03 20:43:00,33.9,31.8,29.65,NNW,338,6.5,6.5,92,0.00,,,0.00,VWS V14.01,2013-12-04 01:43:00,
2013-12-03 20:48:00,33.9,31.3,29.65,NNW,338,5.8,6.5,90,0.00,,,0.00,VWS V14.01,2013-12-04 01:48:00,
2013-12-03 20:53:00,33.9,31.0,29.62,NW,315,8.1,8.1,89,0.00,,,0.00,VWS V14.01,2013-12-04 01:53:00,
2013-12-03 20:58:00,33.9,31.0,29.62,NNW,338,4.9,8.7,89,0.00,,,0.00,VWS V14.01,2013-12-04 01:58:00,
2013-12-03 21:00:00,33.9,31.0,29.62,NNW,338,4.9,8.5,89,0.00,,,0.00,VWS V14.01,2013-12-04 02:00:00,
2013-12-03 21:03:00,33.7,30.8,29.62,NNW,338,5.8,6.5,89,0.00,,,0.00,VWS V14.01,2013-12-04 02:03:00,
2013-12-03 21:08:00,33.5,30.6,29.62,NW,315,6.0,6.3,89,0.00,,,0.00,VWS V14.01,2013-12-04 02:08:00,
2013-12-03 21:13:00,33.5,30.6,29.62,NNW,338,2.9,6.3,89,0.00,,,0.00,VWS V14.01,2013-12-04 02:13:00,
2013-12-03 21:18:00,33.3,30.7,29.62,NW,315,2.7,5.6,90,0.00,,,0.00,VWS V14.01,2013-12-04 02:18:00,
2013-12-03 21:23:00,33.2,30.5,29.65,NNW,338,6.0,6.0,90,0.00,,,0.00,VWS V14.01,2013-12-04 02:23:00,
2013-12-03 21:28:00,33.2,30.8,29.65,NNW,338,6.3,6.7,91,0.00,,,0.00,VWS V14.01,2013-12-04 02:28:00,
2013-12-03 21:30:00,33.2,30.8,29.65,NNW,338,6.7,6.7,91,0.00,,,0.00,VWS V14.01,2013-12-04 02:30:00,
2013-12-03 21:33:00,33.0,30.9,29.65,NNW,338,5.8,5.8,92,0.00,,,0.00,VWS V14.01,2013-12-04 02:33:00,
2013-12-03 21:38:00,33.0,30.9,29.62,NNW,338,5.4,6.3,92,0.00,,,0.00,VWS V14.01,2013-12-04 02:38:00,
2013-12-03 21:43:00,33.0,30.9,29.62,NNW,338,5.4,6.3,92,0.00,,,0.00,VWS V14.01,2013-12-04 02:43:00,
2013-12-03 21:48:00,33.0,31.2,29.62,NNW,338,6.0,6.0,93,0.00,,,0.00,VWS V14.01,2013-12-04 02:48:00,
2013-12-03 21:53:00,32.8,30.7,29.65,NW,315,5.6,5.6,92,0.00,,,0.00,VWS V14.01,2013-12-04 02:53:00,
2013-12-03 21:58:00,32.8,30.7,29.65,NNW,338,3.4,5.4,92,0.00,,,0.00,VWS V14.01,2013-12-04 02:58:00,
2013-12-03 22:00:00,32.8,30.7,29.65,NNW,338,5.6,5.6,92,0.00,,,0.00,VWS V14.01,2013-12-04 03:00:00,
2013-12-03 22:03:00,32.8,30.7,29.65,NNW,338,4.9,7.8,92,0.00,,,0.00,VWS V14.01,2013-12-04 03:03:00,
2013-12-03 22:08:00,32.8,30.7,29.65,NW,315,6.0,8.5,92,0.00,,,0.00,VWS V14.01,2013-12-04 03:08:00,
2013-12-03 22:13:00,32.8,30.2,29.65,NW,315,5.8,8.5,90,0.00,,,0.00,VWS V14.01,2013-12-04 03:13:00,
2013-12-03 22:18:00,32.8,30.2,29.65,NNW,338,5.4,10.1,90,0.00,,,0.00,VWS V14.01,2013-12-04 03:18:00,
2013-12-03 22:23:00,32.8,30.2,29.65,NNW,338,8.1,8.1,90,0.00,,,0.00,VWS V14.01,2013-12-04 03:23:00,
2013-12-03 22:28:00,32.8,30.2,29.65,NW,315,7.4,7.4,90,0.00,,,0.00,VWS V14.01,2013-12-04 03:28:00,
2013-12-03 22:30:00,32.8,30.2,29.65,NW,315,7.4,7.4,90,0.00,,,0.00,VWS V14.01,2013-12-04 03:30:00,
2013-12-03 22:33:00,32.6,30.0,29.65,NNW,338,8.5,8.7,90,0.00,,,0.00,VWS V14.01,2013-12-04 03:33:00,
2013-12-03 22:38:00,32.6,30.0,29.65,NNW,338,4.0,9.0,90,0.00,,,0.00,VWS V14.01,2013-12-04 03:38:00,
2013-12-03 22:43:00,32.4,29.8,29.65,NNW,338,5.8,10.3,90,0.00,,,0.00,VWS V14.01,2013-12-04 03:43:00,
2013-12-03 22:48:00,32.4,29.8,29.65,NW,315,5.6,8.5,90,0.00,,,0.00,VWS V14.01,2013-12-04 03:48:00,
2013-12-03 22:53:00,32.3,29.9,29.62,NNW,338,9.6,9.6,91,0.00,,,0.00,VWS V14.01,2013-12-04 03:53:00,
2013-12-03 22:58:00,32.3,29.9,29.62,NNW,338,4.7,6.5,91,0.00,,,0.00,VWS V14.01,2013-12-04 03:58:00,
2013-12-03 23:00:00,32.1,29.8,29.62,NNW,338,2.5,4.7,91,0.00,,,0.00,VWS V14.01,2013-12-04 04:00:00,
2013-12-03 23:03:00,32.1,30.0,29.62,NW,315,6.5,6.5,92,0.00,,,0.00,VWS V14.01,2013-12-04 04:03:00,
2013-12-03 23:08:00,32.1,30.0,29.65,NNW,338,5.8,6.3,92,0.00,,,0.00,VWS V14.01,2013-12-04 04:08:00,
2013-12-03 23:13:00,32.3,30.2,29.65,NNW,338,4.7,7.6,92,0.00,,,0.00,VWS V14.01,2013-12-04 04:13:00,
2013-12-03 23:18:00,32.3,30.2,29.65,NNW,338,7.6,7.6,92,0.00,,,0.00,VWS V14.01,2013-12-04 04:18:00,
2013-12-03 23:23:00,32.3,29.9,29.62,NNW,338,8.1,10.1,91,0.00,,,0.00,VWS V14.01,2013-12-04 04:23:00,
2013-12-03 23:28:00,32.3,29.7,29.62,NNW,338,5.8,9.2,90,0.00,,,0.00,VWS V14.01,2013-12-04 04:28:00,
2013-12-03 23:30:00,32.3,29.7,29.62,NNW,338,5.8,7.4,90,0.00,,,0.00,VWS V14.01,2013-12-04 04:30:00,
2013-12-03 23:33:00,32.4,29.8,29.62,NNW,338,7.4,7.8,90,0.00,,,0.00,VWS V14.01,2013-12-04 04:33:00,
2013-12-03 23:38:00,32.3,29.7,29.62,NNW,338,5.4,6.3,90,0.00,,,0.00,VWS V14.01,2013-12-04 04:38:00,
2013-12-03 23:43:00,32.4,29.6,29.62,NNW,338,6.0,8.7,89,0.00,,,0.00,VWS V14.01,2013-12-04 04:43:00,
2013-12-03 23:48:00,32.3,29.4,29.62,NNW,338,8.7,9.2,89,0.00,,,0.00,VWS V14.01,2013-12-04 04:48:00,
2013-12-03 23:53:00,32.4,29.6,29.65,NNW,338,7.4,10.5,89,0.00,,,0.00,VWS V14.01,2013-12-04 04:53:00,
2013-12-03 23:58:00,32.4,29.6,29.65,NNW,338,8.1,8.1,89,0.00,,,0.00,VWS V14.01,2013-12-04 04:58:00,